sat.trackr.live / text

‹ back to catalog

STARLINK-30137

NORAD 56843 · 2023-079W

PAYLOAD ACTIVE UNKNOWN

§ Identity

Operator
Country
US
Launch date
2023-06-04
Launch site
AFETR
Launch vehicle
Mass (kg)
RCS (m²)

Purposes: comms

External: N2YO · Heavens-Above · Gunter

§ Orbital elements

Epoch: 2026-09-20T21:25:27.070752Z

Period
94.27 min
Inclination
43.0052°
Eccentricity
0.0001492
Mean motion
15.27582612 rev/d
Perigee alt
482.0 km
Apogee alt
484.1 km
Semi-major
6,861.2 km
B*
1.8610e-5
RAAN
84.4123°
Arg perigee
269.5835°
Mean anomaly
90.4846°
Rev number
18,274

§ Raw data

STARLINK-301371 56843U 23079W   26263.89267443  .00000250  00000+0  18610-4 0  99952 56843  43.0052  84.4123 0001492 269.5835  90.4846 15.27582612182740

JSON: /api/v1/satellites/56843 · /tle

For live sub-satellite position, see the globe view (requires WebGL).

§ Visibility from observer

Set your observer location to see the next 7 days of passes ≥ 10°. The values pass through the URL so the page stays shareable.

No JS? Fill the form by hand. The geolocation button needs JavaScript.